Year,Month,Day,Hour,Minute,Value (Times are PST for temperature in C)
2018,09,27,00,00,11.50
2018,09,27,00,01,11.50
2018,09,27,00,02,11.50
2018,09,27,00,03,11.40
2018,09,27,00,04,11.40
2018,09,27,00,05,11.40
2018,09,27,00,06,11.40
2018,09,27,00,07,11.40
2018,09,27,00,08,11.40
2018,09,27,00,09,11.40
2018,09,27,00,10,11.40
2018,09,27,00,11,11.40
2018,09,27,00,12,11.40
2018,09,27,00,13,11.40
2018,09,27,00,14,11.50
2018,09,27,00,15,11.40
2018,09,27,00,16,11.50
2018,09,27,00,17,11.50
2018,09,27,00,18,11.50
2018,09,27,00,19,11.50
2018,09,27,00,20,11.50
2018,09,27,00,21,11.50
2018,09,27,00,22,11.50
2018,09,27,00,23,11.40
2018,09,27,00,24,11.40
2018,09,27,00,25,11.40
2018,09,27,00,26,11.40
2018,09,27,00,27,11.40
2018,09,27,00,28,11.40
2018,09,27,00,29,11.40
2018,09,27,00,30,11.40
2018,09,27,00,31,11.40
2018,09,27,00,32,11.40
2018,09,27,00,33,11.40
2018,09,27,00,34,11.40
2018,09,27,00,35,11.40
2018,09,27,00,36,11.40
2018,09,27,00,37,11.50
2018,09,27,00,38,11.50
2018,09,27,00,39,11.50
2018,09,27,00,40,11.50
2018,09,27,00,41,11.60
2018,09,27,00,42,11.60
2018,09,27,00,43,11.60
2018,09,27,00,44,11.60
2018,09,27,00,45,11.60
2018,09,27,00,46,11.60
2018,09,27,00,47,11.60
2018,09,27,00,48,11.60
2018,09,27,00,49,11.70
2018,09,27,00,50,11.70
2018,09,27,00,51,11.70
2018,09,27,00,52,11.70
2018,09,27,00,53,11.70
2018,09,27,00,54,11.70
2018,09,27,00,55,11.70
2018,09,27,00,56,11.70
2018,09,27,00,57,11.70
2018,09,27,00,58,11.70
2018,09,27,00,59,11.70
2018,09,27,01,00,11.70
2018,09,27,01,01,11.70
2018,09,27,01,02,11.70
2018,09,27,01,03,11.70
2018,09,27,01,04,11.70
2018,09,27,01,05,11.70
2018,09,27,01,06,11.70
2018,09,27,01,07,11.70
2018,09,27,01,08,11.60
2018,09,27,01,09,11.60
2018,09,27,01,10,11.60
2018,09,27,01,11,11.60
2018,09,27,01,12,11.60
2018,09,27,01,13,11.60
2018,09,27,01,14,11.60
2018,09,27,01,15,11.70
2018,09,27,01,16,11.70
2018,09,27,01,17,11.70
2018,09,27,01,18,11.60
2018,09,27,01,19,11.60
2018,09,27,01,20,11.60
2018,09,27,01,21,11.60
2018,09,27,01,22,11.60
2018,09,27,01,23,11.60
2018,09,27,01,24,11.70
2018,09,27,01,25,11.70
2018,09,27,01,26,11.70
2018,09,27,01,27,11.70
2018,09,27,01,28,11.70
2018,09,27,01,29,11.70
2018,09,27,01,30,11.70
2018,09,27,01,31,11.80
2018,09,27,01,32,11.80
2018,09,27,01,33,11.80
2018,09,27,01,34,11.80
2018,09,27,01,35,11.70
2018,09,27,01,36,11.70
2018,09,27,01,37,11.70
2018,09,27,01,38,11.70
2018,09,27,01,39,11.70
2018,09,27,01,40,11.70
2018,09,27,01,41,11.70
2018,09,27,01,42,11.70
2018,09,27,01,43,11.70
2018,09,27,01,44,11.70
2018,09,27,01,45,11.70
2018,09,27,01,46,11.70
2018,09,27,01,47,11.70
2018,09,27,01,48,11.60
2018,09,27,01,49,11.60
2018,09,27,01,50,11.60
2018,09,27,01,51,11.60
2018,09,27,01,52,11.60
2018,09,27,01,53,11.60
2018,09,27,01,54,11.60
2018,09,27,01,55,11.60
2018,09,27,01,56,11.50
2018,09,27,01,57,11.50
2018,09,27,01,58,11.50
2018,09,27,01,59,11.50
2018,09,27,02,00,11.50
2018,09,27,02,01,11.50
2018,09,27,02,02,11.40
2018,09,27,02,03,11.40
2018,09,27,02,04,11.40
2018,09,27,02,05,11.40
2018,09,27,02,06,11.50
2018,09,27,02,07,11.60
2018,09,27,02,08,11.60
2018,09,27,02,09,11.60
2018,09,27,02,10,11.60
2018,09,27,02,11,11.60
2018,09,27,02,12,11.60
2018,09,27,02,13,11.60
2018,09,27,02,14,11.60
2018,09,27,02,15,11.60
2018,09,27,02,16,11.60
2018,09,27,02,17,11.50
2018,09,27,02,18,11.50
2018,09,27,02,19,11.50
2018,09,27,02,20,11.40
2018,09,27,02,21,11.40
2018,09,27,02,22,11.40
2018,09,27,02,23,11.40
2018,09,27,02,24,11.40
2018,09,27,02,25,11.40
2018,09,27,02,26,11.40
2018,09,27,02,27,11.40
2018,09,27,02,28,11.40
2018,09,27,02,29,11.40
2018,09,27,02,30,11.40
2018,09,27,02,31,11.40
2018,09,27,02,32,11.40
2018,09,27,02,33,11.40
2018,09,27,02,34,11.40
2018,09,27,02,35,11.40
2018,09,27,02,36,11.40
2018,09,27,02,37,11.40
2018,09,27,02,38,11.40
2018,09,27,02,39,11.40
2018,09,27,02,40,11.40
2018,09,27,02,41,11.40
2018,09,27,02,42,11.40
2018,09,27,02,43,11.40
2018,09,27,02,44,11.40
2018,09,27,02,45,11.40
2018,09,27,02,46,11.40
2018,09,27,02,47,11.50
2018,09,27,02,48,11.50
2018,09,27,02,49,11.50
2018,09,27,02,50,11.50
2018,09,27,02,51,11.50
2018,09,27,02,52,11.60
2018,09,27,02,53,11.60
2018,09,27,02,54,11.60
2018,09,27,02,55,11.60
2018,09,27,02,56,11.60
2018,09,27,02,57,11.60
2018,09,27,02,58,11.60
2018,09,27,02,59,11.60
2018,09,27,03,00,11.60
2018,09,27,03,01,11.60
2018,09,27,03,02,11.60
2018,09,27,03,03,11.60
2018,09,27,03,04,11.60
2018,09,27,03,05,11.60
2018,09,27,03,06,11.60
2018,09,27,03,07,11.60
2018,09,27,03,08,11.60
2018,09,27,03,09,11.60
2018,09,27,03,10,11.60
2018,09,27,03,11,11.50
2018,09,27,03,12,11.50
2018,09,27,03,13,11.40
2018,09,27,03,14,11.40
2018,09,27,03,15,11.40
2018,09,27,03,16,11.40
2018,09,27,03,17,11.40
2018,09,27,03,18,11.40
2018,09,27,03,19,11.40
2018,09,27,03,20,11.40
2018,09,27,03,21,11.30
2018,09,27,03,22,11.30
2018,09,27,03,23,11.30
2018,09,27,03,24,11.30
2018,09,27,03,25,11.30
2018,09,27,03,26,11.30
2018,09,27,03,27,11.30
2018,09,27,03,28,11.30
2018,09,27,03,29,11.30
2018,09,27,03,30,11.20
2018,09,27,03,31,11.20
2018,09,27,03,32,11.20
2018,09,27,03,33,11.20
2018,09,27,03,34,11.20
2018,09,27,03,35,11.20
2018,09,27,03,36,11.20
2018,09,27,03,37,11.30
2018,09,27,03,38,11.30
2018,09,27,03,39,11.30
2018,09,27,03,40,11.30
2018,09,27,03,41,11.30
2018,09,27,03,42,11.30
2018,09,27,03,43,11.20
2018,09,27,03,44,11.20
2018,09,27,03,45,11.20
2018,09,27,03,46,11.20
2018,09,27,03,47,11.20
2018,09,27,03,48,11.20
2018,09,27,03,49,11.20
2018,09,27,03,50,11.20
2018,09,27,03,51,11.20
2018,09,27,03,52,11.10
2018,09,27,03,53,11.10
2018,09,27,03,54,11.10
2018,09,27,03,55,11.10
2018,09,27,03,56,11.10
2018,09,27,03,57,11.10
2018,09,27,03,58,11.10
2018,09,27,03,59,11.10
2018,09,27,04,00,11.10
2018,09,27,04,01,11.10
2018,09,27,04,02,11.10
2018,09,27,04,03,11.10
2018,09,27,04,04,11.10
2018,09,27,04,05,11.10
2018,09,27,04,06,11.10
2018,09,27,04,07,11.10
2018,09,27,04,08,11.10
2018,09,27,04,09,11.20
2018,09,27,04,10,11.20
2018,09,27,04,11,11.20
2018,09,27,04,12,11.20
2018,09,27,04,13,11.20
2018,09,27,04,14,11.20
2018,09,27,04,15,11.20
2018,09,27,04,16,11.10
2018,09,27,04,17,11.10
2018,09,27,04,18,11.10
2018,09,27,04,19,11.00
2018,09,27,04,20,11.00
2018,09,27,04,21,11.00
2018,09,27,04,22,11.00
2018,09,27,04,23,11.00
2018,09,27,04,24,11.00
2018,09,27,04,25,11.00
2018,09,27,04,26,11.10
2018,09,27,04,27,11.10
2018,09,27,04,28,11.20
2018,09,27,04,29,11.30
2018,09,27,04,30,11.30
2018,09,27,04,31,11.40
2018,09,27,04,32,11.50
2018,09,27,04,33,11.60
2018,09,27,04,34,11.70
2018,09,27,04,35,11.70
2018,09,27,04,36,11.70
2018,09,27,04,37,11.70
2018,09,27,04,38,11.70
2018,09,27,04,39,11.70
2018,09,27,04,40,11.80
2018,09,27,04,41,11.80
2018,09,27,04,42,11.80
2018,09,27,04,43,11.80
2018,09,27,04,44,11.80
2018,09,27,04,45,11.80
2018,09,27,04,46,11.80
2018,09,27,04,47,11.80
2018,09,27,04,48,11.80
2018,09,27,04,49,11.70
2018,09,27,04,50,11.80
2018,09,27,04,51,11.80
2018,09,27,04,52,11.80
2018,09,27,04,53,11.80
2018,09,27,04,54,11.80
2018,09,27,04,55,11.80
2018,09,27,04,56,11.80
2018,09,27,04,57,11.80
2018,09,27,04,58,11.80
2018,09,27,04,59,11.70
2018,09,27,05,00,11.70
2018,09,27,05,01,11.70
2018,09,27,05,02,11.80
2018,09,27,05,03,11.80
2018,09,27,05,04,11.90
2018,09,27,05,05,11.90
2018,09,27,05,06,11.90
2018,09,27,05,07,12.00
2018,09,27,05,08,12.10
2018,09,27,05,09,12.10
2018,09,27,05,10,12.10
2018,09,27,05,11,12.20
2018,09,27,05,12,12.20
2018,09,27,05,13,12.30
2018,09,27,05,14,12.30
2018,09,27,05,15,12.30
2018,09,27,05,16,12.30
2018,09,27,05,17,12.30
2018,09,27,05,18,12.40
2018,09,27,05,19,12.30
2018,09,27,05,20,12.40
2018,09,27,05,21,12.40
2018,09,27,05,22,12.50
2018,09,27,05,23,12.60
2018,09,27,05,24,12.60
2018,09,27,05,25,12.70
2018,09,27,05,26,12.70
2018,09,27,05,27,12.70
2018,09,27,05,28,12.70
2018,09,27,05,29,12.70
2018,09,27,05,30,12.70
2018,09,27,05,31,12.70
2018,09,27,05,32,12.70
2018,09,27,05,33,12.70
2018,09,27,05,34,12.70
2018,09,27,05,35,12.70
2018,09,27,05,36,12.70
2018,09,27,05,37,12.70
2018,09,27,05,38,12.70
2018,09,27,05,39,12.70
2018,09,27,05,40,12.70
2018,09,27,05,41,12.70
2018,09,27,07,56,13.70
2018,09,27,07,57,13.80
2018,09,27,07,58,13.80
2018,09,27,07,59,13.80
2018,09,27,08,00,13.90
2018,09,27,08,01,13.90
2018,09,27,08,02,14.00
2018,09,27,08,03,14.10
2018,09,27,08,04,14.10
2018,09,27,08,05,14.20
2018,09,27,08,06,14.20
2018,09,27,08,07,14.30
2018,09,27,08,08,14.30
2018,09,27,08,09,14.40
2018,09,27,08,10,14.50
2018,09,27,08,11,14.50
2018,09,27,08,12,14.60
2018,09,27,08,13,14.60
2018,09,27,08,14,14.60
2018,09,27,08,15,14.70
2018,09,27,08,16,14.70
2018,09,27,08,17,14.70
2018,09,27,08,18,14.80
2018,09,27,08,19,14.80
2018,09,27,08,20,14.90
2018,09,27,08,21,14.90
2018,09,27,08,22,15.00
2018,09,27,08,23,15.00
2018,09,27,08,24,15.00
2018,09,27,08,25,15.00
2018,09,27,08,26,15.00
2018,09,27,08,27,15.00
2018,09,27,08,28,15.10
2018,09,27,08,29,15.10
2018,09,27,08,30,15.20
2018,09,27,08,31,15.20
2018,09,27,08,32,15.30
2018,09,27,08,33,15.30
2018,09,27,08,34,15.30
2018,09,27,08,35,15.40
2018,09,27,08,36,15.40
2018,09,27,08,37,15.50
2018,09,27,08,38,15.50
2018,09,27,08,39,15.60
2018,09,27,08,40,15.60
2018,09,27,08,41,15.70
2018,09,27,08,42,15.70
2018,09,27,08,43,15.70
2018,09,27,08,44,15.80
2018,09,27,08,45,15.80
2018,09,27,08,46,15.80
2018,09,27,08,47,15.80
2018,09,27,08,48,15.80
2018,09,27,08,49,15.80
2018,09,27,08,50,15.80
2018,09,27,08,51,15.90
2018,09,27,08,52,15.90
2018,09,27,08,53,16.00
2018,09,27,08,54,16.10
2018,09,27,08,55,16.10
2018,09,27,08,56,16.20
2018,09,27,08,57,16.20
2018,09,27,08,58,16.20
2018,09,27,08,59,16.20
2018,09,27,09,00,16.20
2018,09,27,09,01,16.20
2018,09,27,09,02,16.30
2018,09,27,09,03,16.30
2018,09,27,09,04,16.30
2018,09,27,09,05,16.30
2018,09,27,09,06,16.30
2018,09,27,09,07,16.30
2018,09,27,09,08,16.40
2018,09,27,09,09,16.40
2018,09,27,09,10,16.40
2018,09,27,09,11,16.40
2018,09,27,09,12,16.50
2018,09,27,09,13,16.50
2018,09,27,09,14,16.60
2018,09,27,09,15,16.60
2018,09,27,09,16,16.60
2018,09,27,09,17,16.70
2018,09,27,09,18,16.80
2018,09,27,09,19,16.80
2018,09,27,09,20,16.80
2018,09,27,09,21,16.80
2018,09,27,09,22,16.80
2018,09,27,09,23,16.80
2018,09,27,09,24,16.80
2018,09,27,09,25,16.80
2018,09,27,09,26,16.80
2018,09,27,09,27,16.80
2018,09,27,09,28,16.90
2018,09,27,09,29,16.90
2018,09,27,09,30,17.00
2018,09,27,09,31,17.00
2018,09,27,09,32,17.00
2018,09,27,09,33,17.00
2018,09,27,09,34,17.00
2018,09,27,09,35,17.00
2018,09,27,09,36,17.00
2018,09,27,09,37,17.10
2018,09,27,09,38,17.10
2018,09,27,09,39,17.20
2018,09,27,09,40,17.20
2018,09,27,09,41,17.20
2018,09,27,09,42,17.20
2018,09,27,09,43,17.30
2018,09,27,09,44,17.40
2018,09,27,09,45,17.50
2018,09,27,09,46,17.60
2018,09,27,09,47,17.70
2018,09,27,09,48,17.80
2018,09,27,09,49,17.80
2018,09,27,09,50,17.90
2018,09,27,09,51,17.90
2018,09,27,09,52,18.00
2018,09,27,09,53,18.00
2018,09,27,09,54,17.90
2018,09,27,09,55,17.90
2018,09,27,09,56,17.90
2018,09,27,09,57,18.00
2018,09,27,09,58,18.00
2018,09,27,09,59,18.00
2018,09,27,10,00,17.90
2018,09,27,10,01,17.90
2018,09,27,10,02,18.00
2018,09,27,10,03,18.10
2018,09,27,10,04,18.20
2018,09,27,10,05,18.20
2018,09,27,10,06,18.20
2018,09,27,10,07,18.20
2018,09,27,10,08,18.20
2018,09,27,10,09,18.20
2018,09,27,10,10,18.30
2018,09,27,10,11,18.30
2018,09,27,10,12,18.20
2018,09,27,10,13,18.20
2018,09,27,10,14,18.20
2018,09,27,10,15,18.20
2018,09,27,10,16,18.20
2018,09,27,10,17,18.20
2018,09,27,10,18,18.20
2018,09,27,10,19,18.30
2018,09,27,10,20,18.30
2018,09,27,10,21,18.30
2018,09,27,10,22,18.30
2018,09,27,10,23,18.30
2018,09,27,10,24,18.30
2018,09,27,10,25,18.30
2018,09,27,10,26,18.30
2018,09,27,10,27,18.30
2018,09,27,10,28,18.30
2018,09,27,10,29,18.20
2018,09,27,10,30,18.20
2018,09,27,10,31,18.20
2018,09,27,10,32,18.20
2018,09,27,10,33,18.20
2018,09,27,10,34,18.20
2018,09,27,10,35,18.20
2018,09,27,10,36,18.20
2018,09,27,10,37,18.20
2018,09,27,10,38,18.20
2018,09,27,10,39,18.30
2018,09,27,10,40,18.30
2018,09,27,10,41,18.30
2018,09,27,10,42,18.40
2018,09,27,10,43,18.40
2018,09,27,10,44,18.40
2018,09,27,10,45,18.40
2018,09,27,10,46,18.30
2018,09,27,10,47,18.30
2018,09,27,10,48,18.30
2018,09,27,10,49,18.30
2018,09,27,10,50,18.40
2018,09,27,10,51,18.50
2018,09,27,10,52,18.60
2018,09,27,10,53,18.60
2018,09,27,10,54,18.60
2018,09,27,10,55,18.60
2018,09,27,10,56,18.60
2018,09,27,10,57,18.60
2018,09,27,10,58,18.60
2018,09,27,10,59,18.60
2018,09,27,11,00,18.60
2018,09,27,11,01,18.50
2018,09,27,11,02,18.50
2018,09,27,11,03,18.50
2018,09,27,11,04,18.40
2018,09,27,11,05,18.40
2018,09,27,11,06,18.50
2018,09,27,11,07,18.60
2018,09,27,11,08,18.70
2018,09,27,11,09,18.70
2018,09,27,11,10,18.70
2018,09,27,11,11,18.70
2018,09,27,11,12,18.80
2018,09,27,11,13,18.80
2018,09,27,11,14,18.70
2018,09,27,11,15,18.70
2018,09,27,11,16,18.70
2018,09,27,11,17,18.70
2018,09,27,11,18,18.70
2018,09,27,11,19,18.70
2018,09,27,11,20,18.70
2018,09,27,11,21,18.80
2018,09,27,11,22,18.80
2018,09,27,11,23,18.80
2018,09,27,11,24,18.80
2018,09,27,11,25,18.80
2018,09,27,11,26,18.70
2018,09,27,11,27,18.70
2018,09,27,11,28,18.70
2018,09,27,11,29,18.80
2018,09,27,11,30,18.80
2018,09,27,11,31,18.80
2018,09,27,11,32,18.80
2018,09,27,11,33,18.80
2018,09,27,11,34,18.90
2018,09,27,11,35,19.00
2018,09,27,11,36,19.00
2018,09,27,11,37,19.00
2018,09,27,11,38,19.10
2018,09,27,11,39,19.10
2018,09,27,11,40,19.00
2018,09,27,11,41,19.00
2018,09,27,11,42,19.10
2018,09,27,11,43,19.10
2018,09,27,11,44,19.20
2018,09,27,11,45,19.20
2018,09,27,11,46,19.20
2018,09,27,11,47,19.10
2018,09,27,11,48,19.10
2018,09,27,11,49,19.10
2018,09,27,11,50,19.10
2018,09,27,11,51,19.20
2018,09,27,11,52,19.20
2018,09,27,11,53,19.20
2018,09,27,11,54,19.20
2018,09,27,11,55,19.20
2018,09,27,11,56,19.10
2018,09,27,11,57,19.10
2018,09,27,11,58,19.10
2018,09,27,11,59,19.00
2018,09,27,12,00,19.00
2018,09,27,12,01,19.00
2018,09,27,12,02,18.90
2018,09,27,12,03,18.90
2018,09,27,12,04,18.90
2018,09,27,12,05,18.90
2018,09,27,12,06,18.90
2018,09,27,12,07,18.90
2018,09,27,12,08,18.90
2018,09,27,12,09,18.90
2018,09,27,12,10,18.90
2018,09,27,12,11,19.00
2018,09,27,12,12,19.00
2018,09,27,12,13,18.90
2018,09,27,12,14,18.90
2018,09,27,12,15,18.90
2018,09,27,12,16,18.90
2018,09,27,12,17,18.80
2018,09,27,12,18,18.80
2018,09,27,12,19,18.80
2018,09,27,12,20,18.80
2018,09,27,12,21,18.90
2018,09,27,12,22,18.90
2018,09,27,12,23,18.90
2018,09,27,12,24,18.90
2018,09,27,12,25,18.90
2018,09,27,12,26,18.90
2018,09,27,12,27,18.80
2018,09,27,12,28,18.70
2018,09,27,12,29,18.60
2018,09,27,12,30,18.50
2018,09,27,12,31,18.50
2018,09,27,12,32,18.40
2018,09,27,12,33,18.40
2018,09,27,12,34,18.40
2018,09,27,12,35,18.40
2018,09,27,12,36,18.30
2018,09,27,12,37,18.40
2018,09,27,12,38,18.40
2018,09,27,12,39,18.40
2018,09,27,12,40,18.40
2018,09,27,12,41,18.40
2018,09,27,12,42,18.40
2018,09,27,12,43,18.40
2018,09,27,12,44,18.50
2018,09,27,12,45,18.50
2018,09,27,12,46,18.50
2018,09,27,12,47,18.50
2018,09,27,12,48,18.60
2018,09,27,12,49,18.60
2018,09,27,12,50,18.60
2018,09,27,12,51,18.60
2018,09,27,12,52,18.60
2018,09,27,12,53,18.70
2018,09,27,12,54,18.80
2018,09,27,12,55,18.90
2018,09,27,12,56,19.00
2018,09,27,12,57,19.10
2018,09,27,12,58,19.10
2018,09,27,12,59,19.10
2018,09,27,13,00,19.10
2018,09,27,13,01,19.10
2018,09,27,13,02,19.10
2018,09,27,13,03,19.00
2018,09,27,13,04,19.00
2018,09,27,13,05,19.10
2018,09,27,13,06,19.10
2018,09,27,13,07,19.20
2018,09,27,13,08,19.20
2018,09,27,13,09,19.10
2018,09,27,13,10,19.10
2018,09,27,13,11,19.10
2018,09,27,13,12,19.10
2018,09,27,13,13,19.10
2018,09,27,13,14,19.20
2018,09,27,13,15,19.20
2018,09,27,13,16,19.20
2018,09,27,13,17,19.20
2018,09,27,13,18,19.30
2018,09,27,13,19,19.30
2018,09,27,13,20,19.40
2018,09,27,13,21,19.40
2018,09,27,13,22,19.40
2018,09,27,13,23,19.40
2018,09,27,13,24,19.40
2018,09,27,13,25,19.50
2018,09,27,13,26,19.50
2018,09,27,13,27,19.50
2018,09,27,13,28,19.60
2018,09,27,13,29,19.60
2018,09,27,13,30,19.70
2018,09,27,13,31,19.70
2018,09,27,13,32,19.70
2018,09,27,13,33,19.70
2018,09,27,13,34,19.70
2018,09,27,13,35,19.70
2018,09,27,13,36,19.80
2018,09,27,13,37,19.80
2018,09,27,13,38,19.90
2018,09,27,13,39,19.90
2018,09,27,13,40,20.00
2018,09,27,13,41,19.90
2018,09,27,13,42,19.90
2018,09,27,13,43,19.80
2018,09,27,13,44,19.80
2018,09,27,13,45,19.70
2018,09,27,13,46,19.60
2018,09,27,13,47,19.60
2018,09,27,13,48,19.60
2018,09,27,13,49,19.50
2018,09,27,13,50,19.40
2018,09,27,13,51,19.40
2018,09,27,13,52,19.40
2018,09,27,13,53,19.40
2018,09,27,13,54,19.30
2018,09,27,13,55,19.30
2018,09,27,13,56,19.30
2018,09,27,13,57,19.20
2018,09,27,13,58,19.20
2018,09,27,13,59,19.20
2018,09,27,14,00,19.20
2018,09,27,14,01,19.10
2018,09,27,14,02,19.10
2018,09,27,14,03,19.10
2018,09,27,14,04,19.10
2018,09,27,14,05,19.10
2018,09,27,14,06,19.10
2018,09,27,14,07,19.10
2018,09,27,14,08,19.10
2018,09,27,14,09,19.00
2018,09,27,14,10,19.00
2018,09,27,14,11,19.00
2018,09,27,14,12,19.10
2018,09,27,14,13,19.10
2018,09,27,14,14,19.10
2018,09,27,14,15,19.10
2018,09,27,14,16,19.20
2018,09,27,14,17,19.30
2018,09,27,14,18,19.30
2018,09,27,14,19,19.30
2018,09,27,14,20,19.30
2018,09,27,14,21,19.30
2018,09,27,14,22,19.40
2018,09,27,14,23,19.40
2018,09,27,14,24,19.50
2018,09,27,14,25,19.50
2018,09,27,14,26,19.40
2018,09,27,14,27,19.40
2018,09,27,14,28,19.40
2018,09,27,14,29,19.40
2018,09,27,14,30,19.50
2018,09,27,14,31,19.50
2018,09,27,14,32,19.60
2018,09,27,14,33,19.60
2018,09,27,14,34,19.60
2018,09,27,14,35,19.60
2018,09,27,14,36,19.60
2018,09,27,14,37,19.50
2018,09,27,14,38,19.50
2018,09,27,14,39,19.40
2018,09,27,14,40,19.40
2018,09,27,14,41,19.30
2018,09,27,14,42,19.30
2018,09,27,14,43,19.30
2018,09,27,14,44,19.40
2018,09,27,14,45,19.40
2018,09,27,14,46,19.50
2018,09,27,14,47,19.60
2018,09,27,14,48,19.70
2018,09,27,14,49,19.80
2018,09,27,14,50,19.90
2018,09,27,14,51,20.00
2018,09,27,14,52,20.10
2018,09,27,14,53,20.20
2018,09,27,14,54,20.30
2018,09,27,14,55,20.30
2018,09,27,14,56,20.40
2018,09,27,14,57,20.50
2018,09,27,14,58,20.50
2018,09,27,14,59,20.50
2018,09,27,15,00,20.50
2018,09,27,15,01,20.50
2018,09,27,15,02,20.70
2018,09,27,15,03,20.60
2018,09,27,15,04,20.70
2018,09,27,15,05,20.70
2018,09,27,15,06,20.60
2018,09,27,15,07,20.60
2018,09,27,15,08,20.60
2018,09,27,15,09,20.60
2018,09,27,15,10,20.50
2018,09,27,15,11,20.50
2018,09,27,15,12,20.40
2018,09,27,15,13,20.40
2018,09,27,15,14,20.40
2018,09,27,15,15,20.40
2018,09,27,15,16,20.40
2018,09,27,15,17,20.40
2018,09,27,15,18,20.40
2018,09,27,15,19,20.40
2018,09,27,15,20,20.40
2018,09,27,15,21,20.30
2018,09,27,15,22,20.30
2018,09,27,15,23,20.30
2018,09,27,15,24,20.30
2018,09,27,15,25,20.30
2018,09,27,15,26,20.30
2018,09,27,15,27,20.30
2018,09,27,15,28,20.30
2018,09,27,15,29,20.30
2018,09,27,15,30,20.30
2018,09,27,15,31,20.20
2018,09,27,15,32,20.20
2018,09,27,15,33,20.20
2018,09,27,15,34,20.20
2018,09,27,15,35,20.20
2018,09,27,15,36,20.10
2018,09,27,15,37,20.10
2018,09,27,15,38,20.10
2018,09,27,15,39,20.20
2018,09,27,15,40,20.20
2018,09,27,15,41,20.20
2018,09,27,15,42,20.30
2018,09,27,15,43,20.30
2018,09,27,15,44,20.30
2018,09,27,15,45,20.30
2018,09,27,15,46,20.30
2018,09,27,15,47,20.40
2018,09,27,15,48,20.40
2018,09,27,15,49,20.40
2018,09,27,15,50,20.40
2018,09,27,15,51,20.40
2018,09,27,15,52,20.40
2018,09,27,15,53,20.40
2018,09,27,15,54,20.50
2018,09,27,15,55,20.50
2018,09,27,15,56,20.50
2018,09,27,15,57,20.60
2018,09,27,15,58,20.60
2018,09,27,15,59,20.60
2018,09,27,16,00,20.60
2018,09,27,16,01,20.60
2018,09,27,16,02,20.50
2018,09,27,16,03,20.50
2018,09,27,16,04,20.50
2018,09,27,16,05,20.50
2018,09,27,16,06,20.50
2018,09,27,16,07,20.50
2018,09,27,16,08,20.50
2018,09,27,16,09,20.50
2018,09,27,16,10,20.50
2018,09,27,16,11,20.50
2018,09,27,16,12,20.60
2018,09,27,16,13,20.60
2018,09,27,16,14,20.60
2018,09,27,16,15,20.70
2018,09,27,16,16,20.70
2018,09,27,16,17,20.60
2018,09,27,16,18,20.60
2018,09,27,16,19,20.70
2018,09,27,16,20,20.70
2018,09,27,16,21,20.80
2018,09,27,16,22,20.90
2018,09,27,16,23,20.90
2018,09,27,16,24,21.00
2018,09,27,16,25,21.00
2018,09,27,16,26,21.10
2018,09,27,16,27,21.10
2018,09,27,16,28,21.10
2018,09,27,16,29,21.10
2018,09,27,16,30,21.10
2018,09,27,16,31,21.10
2018,09,27,16,32,21.20
2018,09,27,16,33,21.20
2018,09,27,16,34,21.20
2018,09,27,16,35,21.20
2018,09,27,16,36,21.20
2018,09,27,16,37,21.30
2018,09,27,16,38,21.30
2018,09,27,16,39,21.30
2018,09,27,16,40,21.40
2018,09,27,16,41,21.40
2018,09,27,16,42,21.50
2018,09,27,16,43,21.60
2018,09,27,16,44,21.60
2018,09,27,16,45,21.60
2018,09,27,16,46,21.60
2018,09,27,16,47,21.60
2018,09,27,16,48,21.50
2018,09,27,16,49,21.50
2018,09,27,16,50,21.50
2018,09,27,16,51,21.50
2018,09,27,16,52,21.50
2018,09,27,16,53,21.50
2018,09,27,16,54,21.60
2018,09,27,16,55,21.60
2018,09,27,16,56,21.60
2018,09,27,16,57,21.60
2018,09,27,16,58,21.60
2018,09,27,16,59,21.70
2018,09,27,17,00,21.70
2018,09,27,17,01,21.70
2018,09,27,17,02,21.60
2018,09,27,17,03,21.60
2018,09,27,17,04,21.60
2018,09,27,17,05,21.60
2018,09,27,17,06,21.60
2018,09,27,17,07,21.60
2018,09,27,17,08,21.60
2018,09,27,17,09,21.50
2018,09,27,17,10,21.50
2018,09,27,17,11,21.50
2018,09,27,17,12,21.50
2018,09,27,17,13,21.40
2018,09,27,17,14,21.40
2018,09,27,17,15,21.40
2018,09,27,17,16,21.30
2018,09,27,17,17,21.30
2018,09,27,17,18,21.30
2018,09,27,17,19,21.20
2018,09,27,17,20,21.20
2018,09,27,17,21,21.20
2018,09,27,17,22,21.20
2018,09,27,17,23,21.10
2018,09,27,17,24,21.10
2018,09,27,17,25,21.10
2018,09,27,17,26,21.10
2018,09,27,17,27,21.10
2018,09,27,17,28,21.10
2018,09,27,17,29,21.10
2018,09,27,17,30,21.10
2018,09,27,17,31,21.10
2018,09,27,17,32,21.00
2018,09,27,17,33,21.00
2018,09,27,17,34,21.00
2018,09,27,17,35,21.00
2018,09,27,17,36,20.90
2018,09,27,17,37,20.90
2018,09,27,17,38,20.90
2018,09,27,17,39,20.90
2018,09,27,17,40,20.90
2018,09,27,17,41,20.90
2018,09,27,17,42,20.80
2018,09,27,17,43,20.80
2018,09,27,17,44,20.80
2018,09,27,17,45,20.80
2018,09,27,17,46,20.80
2018,09,27,17,47,20.80
2018,09,27,17,48,20.80
2018,09,27,17,49,20.80
2018,09,27,17,50,20.80
2018,09,27,17,51,20.80
2018,09,27,17,52,20.70
2018,09,27,17,53,20.70
2018,09,27,17,54,20.70
2018,09,27,17,55,20.70
2018,09,27,17,56,20.70
2018,09,27,17,57,20.70
2018,09,27,17,58,20.70
2018,09,27,17,59,20.60
2018,09,27,18,00,20.60
2018,09,27,18,01,20.60
2018,09,27,18,02,20.60
2018,09,27,18,03,20.60
2018,09,27,18,04,20.60
2018,09,27,18,05,20.60
2018,09,27,18,06,20.60
2018,09,27,18,07,20.50
2018,09,27,18,08,20.50
2018,09,27,18,09,20.50
2018,09,27,18,10,20.50
2018,09,27,18,11,20.40
2018,09,27,18,12,20.40
2018,09,27,18,13,20.40
2018,09,27,18,14,20.40
2018,09,27,18,15,20.40
2018,09,27,18,16,20.40
2018,09,27,18,17,20.40
2018,09,27,18,18,20.40
2018,09,27,18,19,20.40
2018,09,27,18,20,20.30
2018,09,27,18,21,20.30
2018,09,27,18,22,20.30
2018,09,27,18,23,20.30
2018,09,27,18,24,20.30
2018,09,27,18,25,20.30
2018,09,27,18,26,20.20
2018,09,27,18,27,20.20
2018,09,27,18,28,20.20
2018,09,27,18,29,20.20
2018,09,27,18,30,20.20
2018,09,27,18,31,20.20
2018,09,27,18,32,20.10
2018,09,27,18,33,20.10
2018,09,27,18,34,20.10
2018,09,27,18,35,20.10
2018,09,27,18,36,20.00
2018,09,27,18,37,20.00
2018,09,27,18,38,20.00
2018,09,27,18,39,20.00
2018,09,27,18,40,19.90
2018,09,27,18,41,19.90
2018,09,27,18,42,19.90
2018,09,27,18,43,19.90
2018,09,27,18,44,19.90
2018,09,27,18,45,19.80
2018,09,27,18,46,19.80
2018,09,27,18,47,19.80
2018,09,27,18,48,19.80
2018,09,27,18,49,19.80
2018,09,27,18,50,19.80
2018,09,27,18,51,19.80
2018,09,27,18,52,19.70
2018,09,27,18,53,19.70
2018,09,27,18,54,19.70
2018,09,27,18,55,19.70
2018,09,27,18,56,19.70
2018,09,27,18,57,19.70
2018,09,27,18,58,19.60
2018,09,27,18,59,19.60
2018,09,27,19,00,19.60
2018,09,27,19,01,19.60
2018,09,27,19,02,19.60
2018,09,27,19,03,19.60
2018,09,27,19,04,19.60
2018,09,27,19,05,19.50
2018,09,27,19,06,19.50
2018,09,27,19,07,19.40
2018,09,27,19,08,19.30
2018,09,27,19,09,19.30
2018,09,27,19,10,19.20
2018,09,27,19,11,19.20
2018,09,27,19,12,19.20
2018,09,27,19,13,19.10
2018,09,27,19,14,19.10
2018,09,27,19,15,19.10
2018,09,27,19,16,19.10
2018,09,27,19,17,19.10
2018,09,27,19,18,19.10
2018,09,27,19,19,19.10
2018,09,27,19,20,19.10
2018,09,27,19,21,19.00
2018,09,27,19,22,19.00
2018,09,27,19,23,19.00
2018,09,27,19,24,19.00
2018,09,27,19,25,19.00
2018,09,27,19,26,19.00
2018,09,27,19,27,19.00
2018,09,27,19,28,19.00
2018,09,27,19,29,18.90
2018,09,27,19,30,18.90
2018,09,27,19,31,19.00
2018,09,27,19,32,19.00
2018,09,27,19,33,19.00